Location: Sungai Anya
(2.6167°N, 114.0500°E)
Time: 19:25:23
(UTC+00:00)

Cosmos 2219 Rocket - Pass Details

Date: 19 October 2021
Orbit: 826 x 848 km, 71.0° (Epoch: 08 December)

Event Time Altitude Azimuth Distance (km) Brightness Sun altitude
Rises 10:51:34 0° 164° (SSE) 3,364 5.3 -11.0°
Reaches altitude 10° 10:54:55 10° 143° (SE) 2,427 4.3 -11.8°
Maximum altitude 10:58:19 17° 105° (ESE) 1,998 3.6 -12.7°
Enters shadow 10:59:01 16° 96° (E) 2,017 3.6 -12.8°
